Regional Weather Roundup
Issued by NWS

Home | Current Version | Previous Version | Graphics & Text | Print | Product List | Glossary On
Versions: 1 2 3 4 5 6 7 8 9 10 11 12 13 14 15 16 17 18 19 20 21 22 23 24 25 26 27 28 29 30 31 32 33 34 35 36 37 38 39 40 41 42 43 44 45 46 47 48 49 50
000
ASUS43 KMPX 281310
RWRMN
WEATHER ROUNDUP FOR MINNESOTA
NATIONAL WEATHER SERVICE TWIN CITIES/CHANHASSEN MN
700 AM CST SAT FEB 28 2015


NOTE: "FAIR" INDICATES FEW OR NO CLOUDS BELOW 12,000 FEET WITH NO
SIGNIFICANT WEATHER AND/OR OBSTRUCTIONS TO VISIBILITY. N/A MEANS
CURRENT SKY AND/OR WEATHER CONDITIONS ARE NOT AVAILABLE.

MNZ060>063-068>070-281400-
   Twin Cities Metro

CITY           SKY/WX    TMP DP  RH WIND       PRES   REMARKS
TWIN CITIES    PTCLDY    -2  -8  76 SE6       30.52S WCI -14
ST PAUL        FAIR      -2  -6  83 S7        30.55F WCI -15
CRYSTAL        CLEAR      2  -4  76 S8        30.50S WCI -12
BLAINE         CLEAR      1  -2  85 SE6       30.49F WCI -10
LAKEVILLE      FAIR      -6  -9  84 S5        30.51S WCI -17
EDEN PRAIRIE   CLEAR     -2  -7  79 S7        30.50S WCI -15
SOUTH ST PAUL  CLEAR     -2  -7  81 CALM      30.54S
LAKE ELMO      FAIR      -2  -6  84 S5        30.53S WCI -12
$$
MNZ001>005-007-008-013>017-022>024-027-028-281400-
   Northwest Minnesota

CITY           SKY/WX    TMP DP  RH WIND       PRES   REMARKS
BEMIDJI        PTCLDY    -2  -6  82 S6        30.26F WCI -14
HALLOCK        CLOUDY     3  -2  78 S14       30.20F WCI -15
ROSEAU         MOCLDY     3  -4  72 S9        30.21F WCI -11
WARROAD        PTCLDY     3  -4  72 S5        30.22F WCI  -6
THIEF RVR FALL MOCLDY     1   0  92 S12       30.21F WCI -15
CROOKSTON      MOCLDY     7   1  78 S17       30.24F WCI -12
FOSSTON        PTCLDY     3  -4  72 S9        30.24F WCI -11
DETROIT LAKES  PTCLDY     1  -2  85 SE7       30.27F WCI -11
MOORHEAD       MOCLDY     7   1  78 S16       30.28F WCI -11
PARK RAPIDS    CLEAR     -3  -7  82 SE8       30.28F WCI -18
MAHNOMEN       FAIR       6  -2  69 S10G17    30.24F WCI  -9
$$
MNZ006-009>011-018-025>026-281400-
   North Central Minnesota

CITY           SKY/WX    TMP DP  RH WIND       PRES   REMARKS
BAUDETTE       PTCLDY    -3  -8  79 S6        30.23F WCI -15
FLAG ISLAND    PTCLDY    -6 -11  77 S6        30.22F WCI -18
INTL FALLS     MOCLDY     0  -6  76 CALM      30.29F
WASKISH        PTCLDY     1  -2  85 SE3       30.26F
BIG FORK       PTCLDY     0  -6  78 S6        30.30F WCI -12
LONGVILLE      PTCLDY    -6  -9  84 CALM      30.33F
GRAND RAPIDS   PTCLDY    -4  -9  77 S8        30.32F WCI -19
CRANE LAKE     PTCLDY   -17 -22  76 CALM      30.36F
ORR            PTCLDY    -2  -9  71 CALM      30.29F
COOK           PTCLDY     0  -6  78 S3        30.33F
WALKER         FAIR       1  -4  79 S6        30.29F WCI -10
$$
MNZ012-019>021-037-281400-
   Northeast Minnesota

CITY           SKY/WX    TMP DP  RH WIND       PRES   REMARKS
DULUTH         PTCLDY     0  -5  79 SW12      30.38S WCI -17
ELY            PTCLDY   -15 -20  76 W1        30.35S
HIBBING        PTCLDY   -19 -26  70 CALM      30.36F
EVELETH        FLURRIES -18 -27  63 CALM      30.37F
DULUTH HARBOR  PTCLDY     0  -6  78 CALM      30.49S
TWO HARBORS    PTCLDY    -2  -9  71 W3        30.40S
SILVER BAY     PTCLDY   -11 -17  77 CALM      30.40S
GRAND MARAIS     N/A      2  -7  66 NW5       30.45S WCI  -8
G MARAIS ARPRT PTCLDY    -2  -9  71 CALM      30.32S
$$
MNZ029>031-032-039>041-046>048-054>057-064-281400-
   West Central Minnesota

CITY           SKY/WX    TMP DP  RH WIND       PRES   REMARKS
FERGUS FALLS   PTCLDY     3  -4  72 S13       30.35S WCI -14
WHEATON        MOCLDY     1  -4  78 SE12      30.33F WCI -15
MORRIS         PTCLDY     0  -6  78 SE12      30.34S WCI -18
ALEXANDRIA     PTCLDY     1  -5  75 S10       30.33F WCI -15
ELBOW LAKE     FAIR       1  -4  78 SE15      30.31S WCI -18
WADENA         PTCLDY     0  -6  78 S9        30.30F WCI -16
APPLETON       PTCLDY     3  -2  78 S10       30.36F WCI -12
BENSON         PTCLDY     1  -6  71 S10       30.36F WCI -14
ORTONVILLE       N/A      0  -6  78 SE9       30.33F WCI -16
MADISON        PTCLDY     1  -4  78 S6        30.36F WCI -10
WILLMAR        FAIR       0  -8  71 SE9       30.41S WCI -16
$$
MNZ033>034-036-042>043-049>051-058-059-281400-
   Central Minnesota

CITY           SKY/WX    TMP DP  RH WIND       PRES   REMARKS
ST CLOUD       CLEAR     -2  -7  79 S9        30.44F WCI -18
SAUK CENTRE    FAIR      -1  -6  82 SE9       30.38S WCI -17
PAYNESVILLE    CLEAR     -4  -7  85 SE9       30.41F WCI -20
AITKIN         CLEAR      1  -6  71 S7        30.36F WCI -11
PINE RIVER     CLEAR     -6  -9  84 SE6       30.36F WCI -18
BRAINERD       CLEAR     -2  -6  83 S10       30.37F WCI -19
STAPLES        PTCLDY     0  -6  78 S8        30.33F WCI -15
LONG PRAIRIE   FAIR       0  -6  78 SE9       30.36F WCI -16
LITTLE FALLS   PTCLDY     0  -6  78 SE5       30.41S WCI -10
LITCHFIELD     CLEAR     -2  -6  84 CALM      30.43F
BUFFALO        CLEAR      0  -4  85 S6        30.49S WCI -12
MAPLE LAKE     CLEAR      0  -3  86 S7        30.47F WCI -13
$$
MNZ037-044-045-052-053-281400-
   East Central Minnesota

CITY           SKY/WX    TMP DP  RH WIND       PRES   REMARKS
PRINCETON      PTCLDY    -2  -6  84 S6        30.46S WCI -14
MORA           PTCLDY    -6  -9  84 CALM      30.47F
RUSH CITY      PTCLDY    -4  -8  83 S3        30.49S
MOOSE LAKE     PTCLDY    -8 -13  77 CALM      30.42F
HINCKLEY       FAIR      -8 -13  77 SE3       30.46F
CLOQUET        PTCLDY    -4  -8  84 S3        30.39F
MCGREGOR       CLEAR     -2  -6  84 CALM      30.39F
$$
MNZ071>073-080-081-089-090-097-098-281400-
   Southwest Minnesota

CITY           SKY/WX    TMP DP  RH WIND       PRES   REMARKS
MONTEVIDEO     PTCLDY     0  -4  85 S8        30.39F WCI -15
GRANITE FALLS  PTCLDY     0  -5  78 S10       30.41F WCI -16
CANBY          CLEAR      7  -1  67 S10       30.36F WCI  -7
MARSHALL       CLEAR      3  -6  66 S13       30.39S WCI -14
REDWOOD FALLS  PTCLDY    -4  -9  79 S8        30.43F WCI -19
OLIVIA         PTCLDY    -4  -8  84 S9        30.42F WCI -20
PIPESTONE      PTCLDY    -2  -8  78 S8        30.34F WCI -17
WINDOM         PTCLDY     0  -6  78 CALM      30.41F
WORTHINGTON    PTCLDY    21 -11  23 S9        30.41S WCI  11
JACKSON        PTCLDY     0  -6  78 S10       30.43S WCI -17
TRACY          PTCLDY     4  -3  71 S13       30.38F WCI -13
SLAYTON        PTCLDY     2  -6  72 S15       30.37F WCI -17
$$
MNZ065>067-074>077-082>085-091>093-281400-
   South Central Minnesota

CITY           SKY/WX    TMP DP  RH WIND       PRES   REMARKS
MANKATO        PTCLDY    -6 -15  65 S10       30.49S WCI -23
NEW ULM        PTCLDY    -6  -9  84 S12       30.46F WCI -24
ST JAMES       PTCLDY    -2  -8  78 S12       30.47F WCI -20
FAIRMONT       PTCLDY    -8 -11  84 S9        30.45F WCI -25
GLENCOE        PTCLDY    -1  -4  85 S7        30.47S WCI -14
FARIBAULT      PTCLDY    -6  -9  84 S3        30.51S
OWATONNA       MOCLDY    -4  -9  77 SE12      30.50S WCI -22
WASECA         MOCLDY    -6 -11  77 S3        30.52S
ALBERT LEA     PTCLDY    -8 -11  84 S5        30.50F WCI -19
$$
MNZ078>079-086>088-094>096-281400-
   Southeast Minnesota

CITY           SKY/WX    TMP DP  RH WIND       PRES   REMARKS
ROCHESTER      MOCLDY   -12 -17  78 S10       30.52S WCI -31
RED WING       PTCLDY    -4  -9  77 SE3       30.56S
STANTON        MOCLDY    -1  -7  76 S9        30.52S WCI -17
DODGE CENTER   MOCLDY    -6  -9  84 S13       30.48F WCI -25
WINONA         PTCLDY    -9 -15  77 CALM      30.62F
AUSTIN         PTCLDY    -9 -15  77 S6        30.52F WCI -23
PRESTON        PTCLDY    -9 -13  80 S6        30.54S WCI -22
$$
ABBREVIATIONS USED IN REMARKS
   TC - TEMPERATURES IN CELSIUS
  WCI - WIND CHILL INDEX
   HX - HEAT INDEX
  VSB - VISIBILITY
$$


USA.gov is the U.S. government's official web portal to all federal, state and local government web resources and services.